Wind_Speed
32 31 29 27 27 30 30 27 25 24 24 24 25 24 24 23 23 24 26 25 26 27 24 25 25 22 19 20 23 26 25 24 24 25 26 27 28 29 29 29 30 30 30 30 30 29 29 28 27 27 26 26 26 26 26 27 27 28 28 28 28 28 28 28 28 28 29 29 29 29 30 30 29 28 28 29 30 31 32 33 33 33 33 33 33 33
34 32 29 29 31 32 30 27 27 27 27 27 26 26 25 25 25 26 27 27 28 29 27 27 28 25 22 22 22 24 26 25 26 27 27 27 29 29 29 30 31 31 30 30 30 30 30 29 29 29 28 27 26 27 27 27 28 28 29 29 29 30 30 29 29 29 29 30 30 30 31 32 31 31 30 30 31 32 34 34 34 35 35 35 35 35
36 33 32 33 33 32 30 29 29 29 29 29 29 28 28 27 28 28 29 30 30 31 30 30 31 28 25 24 22 23 25 25 26 27 28 29 29 29 30 31 31 31 31 31 31 31 31 31 30 30 29 29 28 28 27 27 28 29 30 30 31 32 31 30 30 29 29 30 31 31 31 32 33 33 33 32 33 34 35 35 36 37 37 38 37 37
37 35 34 35 34 33 32 31 31 31 31 31 31 30 30 29 30 30 30 31 32 33 33 32 34 31 28 26 24 24 25 25 27 28 29 31 31 31 32 31 31 32 32 32 32 32 31 31 31 30 30 30 29 29 28 28 29 30 31 32 33 33 32 31 30 30 30 30 31 32 32 32 33 34 34 34 35 35 36 37 38 38 39 39 39 39
38 37 36 35 35 34 34 33 33 33 33 33 33 32 32 31 32 32 32 33 33 35 35 35 38 35 30 28 25 25 26 26 27 29 30 31 33 34 34 33 33 33 33 33 32 32 32 32 32 31 31 30 30 30 30 30 30 31 32 33 33 33 33 32 32 32 32 31 31 32 33 33 34 35 35 36 36 37 37 38 38 39 40 40 40 41
40 39 38 37 36 36 35 35 35 35 35 34 34 33 33 33 33 34 34 35 35 36 35 37 42 40 33 29 27 27 28 27 27 30 31 32 34 36 35 34 34 34 34 34 33 32 32 32 32 32 31 31 31 32 32 32 31 31 32 32 33 34 34 34 33 33 34 33 32 33 34 35 35 36 37 37 38 38 38 39 39 40 41 41 42 43
41 40 39 38 37 37 38 37 37 37 36 36 34 34 35 35 35 35 35 36 36 37 37 38 43 44 38 31 29 29 30 29 29 31 33 33 35 36 36 36 35 34 34 33 33 32 32 32 32 32 32 32 32 33 33 33 32 32 32 32 33 33 34 35 35 35 35 35 34 35 35 36 37 37 38 38 39 39 39 40 40 41 42 43 44 44
42 42 41 40 40 40 40 38 38 38 38 37 35 35 36 36 36 36 36 37 37 38 40 39 43 47 43 34 31 32 31 30 31 33 34 33 34 34 34 35 35 34 33 32 32 32 32 32 32 32 33 33 33 33 33 34 34 33 33 33 33 34 35 36 36 36 36 36 36 36 37 38 38 39 39 39 40 40 40 41 41 42 43 44 45 46
45 45 43 43 42 42 40 39 39 39 38 38 37 37 37 37 37 37 37 37 37 40 42 41 42 47 47 39 35 34 32 32 33 34 35 34 32 32 32 32 33 33 32 31 31 31 31 32 32 32 33 33 34 34 34 34 34 34 34 34 34 35 36 37 37 37 37 37 37 37 38 39 40 40 41 41 41 41 42 42 43 43 44 45 46 47
49 47 45 45 44 42 41 41 40 40 39 39 39 39 38 38 38 37 38 37 38 43 43 42 43 46 49 43 36 36 34 35 36 36 37 35 32 31 31 30 31 32 32 31 31 31 31 32 32 33 34 34 34 34 34 34 35 35 35 35 36 36 37 38 38 38 38 38 38 39 39 40 41 41 42 42 42 42 43 43 44 44 45 46 47 47
51 49 48 46 44 43 42 42 42 41 41 40 40 40 39 39 38 37 38 37 41 45 43 43 44 46 52 46 36 36 36 37 39 37 37 35 31 31 31 30 30 31 32 32 32 32 32 32 33 34 35 35 35 35 35 36 36 37 37 37 37 37 38 38 39 39 39 39 40 40 41 41 42 42 42 42 43 43 44 44 44 45 46 46 47 47
52 51 49 47 45 44 44 44 43 42 42 42 41 41 40 39 38 37 38 39 43 45 43 45 46 48 54 47 38 39 38 37 40 40 38 34 30 30 30 31 31 31 31 32 32 33 33 33 34 35 35 36 36 36 36 37 37 37 37 37 37 37 37 38 38 39 39 39 40 41 42 42 42 43 43 43 43 44 44 45 45 46 46 46 46 47
53 51 50 48 47 47 46 45 45 44 43 42 41 40 39 39 39 40 41 43 45 44 44 47 50 53 54 47 40 40 40 39 40 41 42 37 30 29 30 32 33 32 32 32 33 33 34 34 34 34 35 35 36 36 36 36 36 37 37 37 37 37 37 38 38 39 39 39 40 41 42 43 43 43 43 44 44 45 45 46 46 46 46 46 46 47
54 53 52 51 50 48 47 46 45 44 42 41 39 39 39 39 41 43 44 45 45 44 46 49 53 56 53 46 42 42 41 41 39 40 43 39 33 30 30 32 33 33 33 34 34 35 35 35 35 35 36 36 36 36 36 36 37 37 37 37 37 37 37 38 38 39 39 39 40 41 42 43 43 43 44 44 45 45 46 46 46 46 46 46 46 47
56 55 53 52 51 48 47 46 45 43 42 42 41 41 41 41 43 45 45 46 46 47 49 50 54 57 52 47 46 44 43 43 41 40 41 40 36 32 30 31 32 33 34 34 34 34 35 35 35 36 36 36 37 37 37 37 37 37 37 37 37 38 38 38 38 38 38 39 40 41 42 43 43 43 44 44 45 45 46 46 45 45 46 46 47 47
57 56 53 51 51 48 47 46 45 44 44 44 43 43 43 42 43 44 45 46 48 51 53 52 55 56 53 50 49 46 45 45 44 42 39 39 38 36 33 33 33 33 33 34 33 33 33 33 34 34 35 36 36 37 37 37 38 38 38 39 39 38 38 38 38 38 38 38 39 40 41 42 43 43 44 44 45 45 45 45 45 46 46 46 47 48
56 55 53 52 50 49 48 48 47 46 46 45 45 45 44 43 43 44 45 47 50 54 55 54 56 55 54 53 49 48 48 47 46 43 38 37 37 38 38 37 36 34 34 34 34 33 33 33 33 34 35 35 35 35 36 37 38 38 39 39 39 38 38 37 38 38 38 38 39 39 40 41 42 43 44 45 45 46 46 46 46 46 47 47 48 49
55 54 53 52 52 50 49 49 49 48 47 47 47 46 44 45 45 45 47 49 50 54 56 56 57 57 57 54 49 49 50 49 48 44 38 36 36 37 40 41 40 38 35 35 35 35 35 34 34 35 36 36 36 35 36 36 37 38 39 39 39 38 38 37 38 38 38 38 39 39 39 40 41 42 43 45 45 46 46 46 46 47 48 49 50 51
54 54 54 53 53 52 51 50 50 49 49 49 48 47 46 47 47 47 48 50 52 55 58 57 58 59 58 55 51 51 51 50 49 46 40 37 36 37 41 44 44 42 39 37 36 36 37 37 37 37 38 37 36 36 36 36 37 37 38 38 39 39 38 38 38 38 39 39 39 40 40 41 42 43 44 45 45 46 46 47 48 49 50 50 51 52
53 54 55 54 53 53 52 52 52 52 51 51 49 48 47 47 48 49 51 54 55 58 60 60 60 59 57 54 53 53 52 51 50 48 44 40 37 37 40 43 45 45 43 40 38 38 39 40 40 40 39 38 37 37 37 36 36 36 37 37 38 39 39 40 40 40 41 41 41 41 41 42 43 44 45 46 46 47 48 49 50 50 51 52 53 54
54 55 56 56 56 56 55 54 53 52 50 49 47 48 48 49 51 53 56 57 57 59 61 62 63 60 56 56 55 54 53 52 51 50 46 41 37 36 38 40 42 44 44 43 41 40 41 42 42 41 40 40 39 39 39 38 38 37 37 38 38 39 41 41 42 42 41 41 41 41 41 42 43 44 46 47 47 48 49 50 51 52 53 54 55 56
56 56 56 57 58 57 55 54 53 52 51 50 50 51 52 53 55 57 59 61 61 62 62 64 67 62 56 57 56 53 54 55 53 51 47 43 39 38 39 40 41 42 44 43 41 41 42 43 43 43 42 42 41 41 40 40 40 40 39 40 40 40 41 41 41 41 41 41 41 41 41 42 43 45 46 47 48 49 50 51 52 53 54 55 56 57
57 56 57 59 59 58 57 57 57 56 56 56 56 57 57 59 61 63 64 64 63 64 63 65 70 64 54 55 56 54 56 58 56 52 48 47 44 42 41 40 40 41 42 41 40 41 43 44 45 46 45 44 44 43 42 42 42 42 42 42 43 42 42 42 42 41 41 41 41 42 42 43 44 45 46 47 48 49 50 52 53 54 55 56 57 58
62 62 63 63 63 63 62 62 62 61 62 62 63 63 63 65 66 65 65 64 65 66 65 67 73 67 57 56 57 57 58 59 57 53 49 48 48 46 43 39 39 40 40 40 41 40 42 44 45 47 47 46 45 44 44 44 44 44 44 44 44 43 43 43 43 42 42 42 42 42 43 44 45 46 47 48 48 50 51 52 54 55 56 57 59 60
64 64 64 64 65 66 67 67 67 67 67 68 67 68 68 69 68 67 67 66 67 67 65 68 74 67 58 58 58 59 60 58 57 55 51 49 49 48 45 39 37 39 39 40 41 41 43 44 45 47 47 47 46 45 45 44 44 45 45 45 45 45 44 44 43 43 43 42 42 43 44 45 46 47 48 49 50 51 53 54 55 56 57 59 60 60
61 62 62 64 67 70 72 72 71 70 68 68 68 68 68 67 66 66 64 63 66 67 68 72 74 66 60 61 62 61 60 58 56 55 54 53 52 50 47 42 39 39 40 41 43 45 46 46 45 46 46 47 47 46 46 45 45 46 47 47 47 47 46 45 44 44 43 43 43 43 44 46 47 49 50 51 53 54 55 56 57 58 59 60 61 61
61 63 63 65 68 72 74 73 72 70 68 68 68 67 66 64 63 61 60 63 68 70 72 74 72 67 64 63 62 60 58 56 55 55 55 56 55 50 47 44 41 41 43 44 45 47 47 46 45 44 45 46 47 47 47 47 47 48 48 49 49 48 47 46 45 45 44 44 44 44 45 46 48 50 52 53 54 55 56 57 58 59 60 61 62 63
63 65 66 65 66 68 70 70 69 69 68 67 67 66 65 63 62 61 63 67 68 69 73 72 67 66 63 59 57 57 55 54 53 53 55 56 56 53 49 48 47 47 47 46 47 48 48 47 45 44 45 47 48 49 49 49 50 50 50 50 50 49 48 46 46 46 46 45 46 46 47 48 50 52 54 55 56 57 58 58 60 61 62 63 64 65
62 65 67 67 66 65 63 63 64 65 65 65 65 64 63 63 63 63 65 66 65 67 69 65 61 62 59 55 54 54 53 53 52 53 55 56 57 57 55 55 55 54 52 51 50 50 50 49 47 46 47 48 49 50 50 51 52 51 51 50 49 48 47 46 46 47 47 47 47 48 49 50 51 53 55 57 58 58 59 60 61 63 64 65 66 67
60 62 64 66 68 67 65 64 65 66 67 68 68 67 65 64 64 64 65 65 64 65 64 58 58 59 55 53 54 53 53 53 54 55 57 58 59 59 59 58 58 58 58 56 54 52 50 49 49 49 49 49 49 49 49 50 51 50 49 48 47 46 46 47 47 48 49 49 49 49 50 51 52 54 55 57 58 59 60 61 62 63 65 66 67 67
57 57 58 60 62 64 64 65 65 65 67 68 68 66 64 64 65 66 67 65 65 66 62 59 60 58 52 52 53 52 54 56 57 58 58 58 60 60 61 61 60 60 60 58 56 53 51 51 51 52 52 50 49 48 48 48 48 47 47 46 45 46 46 47 48 49 50 50 51 52 52 52 52 53 54 55 56 57 58 60 61 63 65 66 67 67
55 54 52 53 58 59 57 58 59 60 61 63 65 64 63 64 65 65 65 63 64 65 62 63 64 58 51 53 54 54 57 60 59 59 58 58 59 60 62 62 61 60 59 57 56 55 55 55 55 55 54 52 50 48 46 46 46 45 45 45 46 47 47 48 49 50 51 52 52 52 51 51 51 51 52 53 54 55 57 59 61 63 65 66 67 67
52 52 49 49 54 54 51 52 55 57 59 63 62 58 58 60 60 60 60 59 60 61 62 63 62 56 52 55 57 57 59 60 58 58 58 58 59 60 60 60 60 59 57 56 57 57 58 57 57 56 55 53 51 49 47 46 45 45 45 46 47 48 49 50 51 51 51 51 50 49 48 48 49 49 50 51 52 53 55 57 59 61 63 65 66 67
50 49 48 49 51 51 48 50 54 58 62 60 54 50 53 55 56 57 58 57 56 59 60 60 58 55 54 56 57 56 57 57 57 58 58 59 58 58 57 57 58 57 57 58 58 58 58 57 56 55 54 53 52 51 50 49 48 48 48 49 50 51 51 51 51 50 49 48 48 47 47 47 48 49 50 51 52 54 56 58 60 62 63 64 66 67
53 51 50 49 50 48 45 48 55 61 59 52 46 46 49 52 53 54 56 55 55 57 58 58 56 52 51 53 54 55 56 57 58 59 59 58 57 56 56 56 56 57 58 59 59 58 57 56 55 55 54 54 54 53 52 52 52 52 52 52 52 52 51 50 49 48 48 47 47 48 48 49 50 51 53 54 56 57 58 60 61 62 63 64 64 65
58 57 56 54 52 49 47 52 57 57 53 48 46 46 48 51 52 54 55 53 51 52 54 53 50 47 48 51 53 54 56 57 58 58 57 56 55 55 56 56 57 58 58 58 58 57 56 56 56 56 56 55 55 55 54 54 54 54 53 52 51 50 50 49 49 48 48 48 49 50 51 52 52 53 55 56 58 59 60 60 60 60 61 62 62 63
61 60 59 58 57 55 53 55 56 55 54 53 50 48 50 51 52 53 54 52 48 49 52 51 48 47 48 51 51 51 53 56 55 53 52 54 55 55 57 57 58 58 57 56 57 56 56 56 56 56 56 56 55 55 55 54 54 53 52 51 50 50 50 50 50 50 50 50 51 53 55 56 56 56 56 56 58 59 60 61 61 61 61 61 61 61
67 65 63 62 62 60 58 57 56 57 55 49 44 45 48 51 53 55 58 57 52 50 52 51 49 49 49 48 48 48 51 54 52 48 48 53 55 56 57 57 57 57 56 56 56 56 55 55 54 54 55 55 55 54 54 54 53 53 52 51 51 52 52 53 53 53 53 53 54 56 57 58 59 58 57 57 58 60 61 62 63 63 63 62 61 61
72 71 68 66 63 61 62 62 62 62 55 42 36 39 44 48 53 57 62 61 52 47 49 51 51 51 49 47 47 49 52 54 50 46 50 55 56 56 57 56 56 57 57 57 56 55 55 54 54 54 54 54 54 54 54 53 53 53 53 53 54 54 53 53 54 54 55 55 56 57 58 59 60 60 60 59 59 59 61 64 66 65 63 61 60 64
75 75 74 73 71 67 66 67 67 66 60 49 44 45 45 47 51 57 62 56 44 41 46 50 51 51 47 48 50 51 53 54 51 50 53 56 56 56 56 56 56 56 56 55 55 55 55 54 54 54 53 54 54 54 54 54 53 53 53 53 52 52 52 53 53 54 55 56 57 58 59 60 61 61 61 60 60 60 63 65 65 63 61 61 64 69
77 76 76 76 74 72 71 70 70 70 65 58 55 53 51 50 54 59 59 51 43 43 46 48 50 50 47 48 51 52 53 54 53 52 53 53 54 55 55 55 55 55 55 54 54 54 54 54 54 54 54 54 53 53 52 51 50 50 50 49 50 50 51 52 54 55 56 58 59 60 61 62 62 62 61 61 61 62 64 64 62 60 61 63 67 69
79 76 75 75 74 72 71 69 69 70 67 62 60 60 60 60 60 58 54 50 48 48 49 50 52 52 50 50 52 53 55 55 54 53 52 52 53 53 54 55 55 55 54 54 53 53 53 53 53 53 52 51 50 49 48 47 47 47 48 49 50 52 54 55 57 58 59 60 61 61 62 62 62 62 62 62 63 63 62 62 62 62 63 66 68 69
79 76 74 73 72 70 70 68 66 67 66 62 59 59 61 61 59 55 52 51 51 50 51 53 55 55 55 55 54 55 56 55 54 54 54 54 54 53 54 55 55 55 54 53 53 53 52 52 51 50 48 47 46 46 47 47 48 49 51 53 55 57 59 61 61 62 62 63 63 62 62 62 62 63 63 64 64 63 62 63 63 63 65 68 70 73
75 76 75 74 73 72 72 72 69 67 64 60 56 54 52 52 51 52 53 53 52 53 55 57 58 59 59 58 58 58 58 57 57 56 56 56 56 55 55 54 54 55 54 53 53 52 51 50 49 47 47 47 47 48 49 50 53 55 58 60 61 62 63 63 63 63 64 64 64 63 64 64 64 64 64 63 62 61 62 64 65 66 69 71 73 75
73 73 73 74 74 73 72 72 70 66 63 60 58 55 52 50 51 53 55 55 55 56 56 58 60 62 61 61 62 62 61 60 59 58 58 58 57 55 55 55 54 54 53 52 51 50 49 48 48 48 49 50 52 53 55 57 60 62 63 63 64 64 64 63 63 64 64 64 64 65 65 66 66 65 64 63 61 61 63 64 64 67 71 75 76 78
73 72 73 73 73 73 73 73 71 69 67 64 62 60 58 55 54 54 55 56 57 58 59 60 61 62 63 63 64 64 64 64 62 61 59 58 57 56 55 55 54 53 51 50 49 48 49 50 51 53 55 57 58 60 61 63 63 64 65 65 65 65 64 64 64 64 64 65 65 66 66 66 65 64 62 60 60 61 63 65 67 69 73 76 78 80
72 69 69 71 72 73 75 75 73 72 71 69 66 65 64 62 60 58 57 57 57 58 60 61 63 63 63 64 64 65 65 64 63 62 60 57 56 56 55 54 52 50 49 49 50 51 53 55 57 58 59 60 61 62 62 63 64 65 66 66 65 64 64 64 64 64 65 65 65 65 65 64 63 62 60 58 59 61 64 67 69 72 74 77 79 81
76 72 67 64 62 63 66 67 67 68 71 71 71 70 68 65 64 62 60 59 58 58 58 59 61 62 63 65 65 65 65 63 61 59 57 56 55 54 53 52 51 51 52 53 54 55 56 57 58 59 60 61 62 63 64 65 66 66 66 64 64 63 63 63 64 64 64 65 65 64 63 62 62 61 60 59 60 61 63 66 69 71 74 77 79 81
73 76 75 69 65 63 61 60 58 59 62 65 69 71 72 71 69 67 66 65 64 63 62 59 58 59 60 63 64 63 62 60 58 56 55 55 55 53 52 52 52 53 54 55 56 57 57 58 59 60 62 63 64 65 66 66 66 65 63 62 62 61 62 62 63 63 63 63 63 62 62 61 61 60 60 61 61 63 65 68 71 73 75 77 79 80
69 70 71 69 68 67 64 60 57 55 54 55 58 62 67 70 70 69 68 68 67 67 66 63 60 58 57 57 57 57 57 56 55 54 54 53 53 53 53 54 55 56 56 57 58 60 61 63 64 66 67 68 68 68 68 67 66 65 63 62 61 61 61 62 62 62 62 61 61 61 61 61 61 61 61 62 63 65 67 69 71 72 74 75 77 78
72 70 68 67 65 63 61 57 55 54 54 54 55 58 62 64 65 66 66 65 65 66 66 65 63 60 57 54 53 52 51 51 51 50 51 51 53 54 55 57 58 59 60 62 63 64 66 68 69 70 71 71 71 70 69 68 67 65 64 63 63 62 62 61 61 61 60 60 60 60 60 61 61 62 63 64 65 67 68 69 71 72 74 75 76 77
Wind_Direction
230 231 232 233 235 238 241 245 249 252 254 255 257 260 263 265 267 268 270 273 275 276 279 281 281 282 286 289 292 296 300 303 303 301 301 299 296 295 294 293 292 291 290 289 288 285 282 278 274 271 270 271 272 271 271 271 271 272 273 273 275 276 277 278 279 281 281 281 280 279 280 280 280 278 276 274 273 273 273 274 274 275 275 275 275 276
233 233 234 236 238 241 245 248 250 252 255 257 259 261 263 265 266 268 271 273 275 276 278 280 280 281 284 286 290 295 299 302 302 301 299 296 294 293 291 290 289 290 290 289 286 282 280 278 275 272 271 271 272 272 273 273 273 273 273 273 274 274 275 276 277 279 280 280 279 278 278 278 278 277 276 275 274 273 274 274 274 274 274 274 275 276
235 235 236 238 241 245 247 249 252 254 256 259 260 262 264 265 266 269 272 274 276 277 278 279 279 279 283 286 290 293 294 298 299 298 298 296 294 293 290 289 288 288 287 285 284 282 280 278 275 274 273 272 272 273 275 275 274 274 274 273 272 273 274 275 276 277 277 278 278 278 277 277 277 276 275 275 274 273 274 274 273 273 273 273 274 275
237 237 238 241 244 246 249 251 253 256 258 260 261 263 265 267 269 270 272 275 277 278 279 280 278 277 281 286 290 293 293 296 297 297 298 297 295 293 290 290 287 285 283 282 283 282 280 277 275 273 272 271 272 273 274 274 272 271 271 271 271 272 272 273 274 274 275 275 277 277 277 276 276 276 275 275 274 273 273 272 272 272 272 273 273 273
239 240 241 243 246 248 250 253 255 257 258 260 262 265 267 269 271 272 274 275 277 278 280 282 279 275 278 285 289 293 295 297 298 299 300 298 296 294 293 291 287 284 283 282 282 281 279 276 275 273 272 272 271 271 271 271 270 270 270 271 271 272 272 272 272 273 273 274 275 276 276 275 275 275 275 274 274 274 273 273 273 273 273 273 273 272
241 243 244 245 248 250 252 254 256 257 259 261 263 266 269 271 273 275 276 277 277 279 281 283 281 276 276 283 288 292 294 297 299 300 299 298 296 295 293 290 287 285 284 283 282 280 279 277 275 273 273 272 272 271 272 272 273 273 272 271 271 271 272 272 272 272 273 273 273 274 274 274 273 273 273 273 274 274 274 273 273 273 273 273 272 272
243 245 246 247 249 251 252 254 256 258 260 262 264 267 270 272 274 275 277 278 279 280 280 281 282 280 276 280 288 291 292 297 301 300 299 299 298 295 292 289 285 283 283 283 282 280 279 278 276 275 273 273 273 273 274 276 277 276 275 274 273 272 272 273 273 272 273 273 272 272 273 273 273 272 273 272 273 272 272 272 271 271 271 271 271 271
244 245 247 247 248 250 252 255 257 259 261 264 266 268 270 272 274 275 277 279 280 281 281 280 284 284 279 279 285 287 291 297 300 301 302 302 300 296 292 287 283 280 280 280 280 280 280 280 278 276 275 274 273 274 275 276 277 277 276 276 274 273 273 273 273 273 273 273 273 273 273 273 273 273 272 272 272 272 271 270 270 269 269 270 271 271
243 244 245 247 248 250 253 256 258 260 263 265 267 267 269 271 272 275 277 279 282 282 280 281 285 286 283 281 284 287 293 298 300 304 306 304 300 294 290 288 284 281 279 278 278 278 279 279 278 278 277 276 275 275 275 275 276 277 277 277 275 274 274 274 274 275 275 276 276 275 275 274 274 273 273 273 272 271 271 270 269 269 269 270 271 272
243 245 246 248 250 252 254 256 258 261 263 265 266 267 268 270 271 274 277 280 283 280 278 282 286 288 284 280 284 290 294 299 303 307 307 304 298 289 287 288 286 283 281 279 278 277 277 277 277 277 277 277 277 277 277 278 278 278 278 278 277 277 276 277 277 277 277 278 278 277 276 275 274 274 274 274 273 272 271 271 270 270 269 270 271 272
245 246 247 249 251 254 256 257 259 260 262 263 265 266 268 269 271 274 276 279 280 278 280 284 286 287 283 279 285 292 293 298 303 307 307 302 294 286 285 286 285 283 281 280 279 278 278 277 277 277 277 277 278 278 278 278 278 278 278 279 279 279 279 279 279 279 279 279 278 278 277 276 276 276 275 275 274 273 272 272 271 270 270 270 271 272
247 249 250 251 253 254 256 257 258 259 260 262 264 266 268 269 271 272 274 276 277 279 282 284 285 284 281 281 288 292 293 298 302 306 307 301 292 286 283 282 283 282 281 281 281 279 277 276 275 275 276 277 278 278 278 278 278 278 279 279 280 281 281 281 281 280 280 280 278 278 277 277 277 276 276 275 274 273 273 272 271 270 270 270 271 271
249 250 251 251 251 252 254 255 258 259 261 262 263 265 267 269 270 271 273 275 277 281 283 282 283 281 279 284 290 291 293 297 299 304 304 300 295 289 282 280 280 280 281 281 280 279 277 276 275 275 275 276 277 277 277 278 278 279 279 279 280 280 280 280 281 281 280 280 278 278 277 277 277 276 275 274 274 273 272 272 271 270 270 270 270 271
248 248 250 251 252 254 255 257 259 261 261 261 261 262 264 266 269 272 274 276 278 281 280 280 281 279 280 286 289 289 291 293 296 300 300 298 297 293 285 280 278 278 278 278 277 277 277 277 278 277 277 277 276 276 277 277 278 278 278 278 278 278 279 279 280 280 280 280 279 278 278 277 277 276 275 274 273 272 272 271 271 270 270 270 271 271
248 249 251 254 255 256 257 258 259 258 258 259 259 260 262 266 270 273 275 276 279 280 278 278 279 279 283 288 288 288 289 291 295 297 297 295 295 294 290 283 279 277 276 275 275 276 276 277 278 278 278 278 277 277 277 277 277 277 278 278 278 278 279 279 279 280 280 279 279 279 278 278 277 276 275 274 273 272 271 271 270 270 270 270 271 272
251 252 252 254 256 257 257 257 257 257 258 259 259 260 264 268 270 271 273 275 278 278 278 279 279 280 284 286 287 289 290 292 295 296 295 292 292 295 294 287 281 277 275 276 276 276 277 278 277 277 277 277 277 277 277 277 277 277 278 278 279 280 280 280 280 279 278 278 278 278 278 277 277 276 275 274 272 271 270 270 270 270 271 272 273 273
252 253 253 254 255 255 256 256 256 257 258 258 259 262 265 267 267 268 270 272 274 276 278 280 280 281 283 283 285 289 289 291 294 294 292 289 288 291 292 290 287 283 280 279 279 279 280 279 278 277 277 277 277 278 279 279 278 278 278 278 278 279 280 280 279 278 278 278 279 279 278 278 277 275 274 272 271 271 270 270 270 271 272 272 272 273
253 254 252 253 254 254 254 255 256 256 258 259 261 263 264 263 264 265 268 270 273 276 279 280 280 281 281 282 285 288 289 291 292 292 291 287 283 284 288 290 290 288 285 281 279 280 280 281 279 277 277 277 278 279 280 280 280 279 278 278 277 278 278 278 278 279 280 280 280 280 280 278 276 274 273 272 271 271 271 271 271 271 271 271 272 273
255 255 254 253 254 254 254 255 255 257 259 260 261 262 261 262 264 266 268 271 274 276 278 279 279 279 280 282 285 287 288 289 290 289 288 284 280 283 288 289 288 286 284 281 278 277 277 279 279 277 277 277 278 279 279 279 280 280 279 278 277 277 277 278 279 280 281 281 280 279 279 278 277 275 273 272 271 270 270 269 270 270 271 272 273 274
254 255 255 253 254 254 254 254 255 257 259 261 261 261 262 263 266 267 268 270 272 274 276 278 278 277 278 281 284 285 285 286 286 284 283 283 281 284 288 286 283 282 281 280 277 276 277 278 277 277 276 278 279 279 279 279 280 280 281 280 278 278 278 279 280 280 281 280 279 278 278 278 277 276 275 273 272 271 270 270 271 271 272 273 274 275
251 253 253 253 253 253 254 255 257 258 258 259 259 261 262 264 266 267 268 269 270 272 274 277 278 277 278 280 282 283 283 283 283 283 284 284 281 283 286 284 281 279 278 278 278 278 278 278 278 278 278 279 281 281 281 281 281 281 282 283 283 282 282 282 281 281 281 281 280 279 279 278 277 276 276 275 274 272 272 272 272 272 273 274 275 276
251 253 254 253 253 254 255 256 256 256 256 257 257 259 261 263 265 266 267 269 270 272 274 277 279 278 277 279 281 282 283 282 282 284 287 284 280 282 285 283 280 278 275 275 277 279 279 280 280 280 280 281 282 282 283 283 283 283 284 285 286 286 286 285 285 284 284 284 283 282 281 280 279 278 277 276 275 274 273 273 273 274 274 275 276 277
253 254 253 253 252 253 253 254 254 255 255 256 257 259 261 263 264 265 267 270 271 272 274 276 278 277 276 278 280 281 280 281 282 284 285 283 282 283 282 279 276 274 274 275 277 278 279 280 281 281 281 281 281 282 283 283 284 284 284 285 285 286 286 286 286 286 286 285 285 285 284 282 281 279 278 276 275 275 274 274 275 275 276 276 277 277
251 252 252 253 252 252 251 252 253 254 255 257 259 261 263 264 266 266 267 268 268 270 273 276 278 277 276 277 278 278 278 280 282 283 281 280 281 281 281 279 276 274 273 274 275 276 278 280 280 280 280 280 281 282 283 284 285 285 285 285 285 285 285 285 286 286 285 284 284 285 284 283 281 280 279 277 277 276 275 275 276 276 276 277 278 279
252 253 253 254 253 252 252 252 253 255 257 260 262 264 265 266 266 266 267 268 269 271 274 274 274 276 277 277 277 278 280 281 282 281 279 279 279 279 280 278 275 274 272 272 273 275 277 278 278 278 279 280 281 282 283 284 285 285 286 286 286 286 285 285 285 285 284 284 283 283 283 282 282 281 279 279 278 277 276 276 277 277 277 278 279 280
253 253 252 252 252 252 252 253 255 257 260 261 262 263 264 265 266 268 269 269 269 270 270 270 273 276 278 277 277 279 280 280 280 280 280 279 277 277 278 279 277 274 271 271 272 274 275 275 275 275 277 279 281 281 281 281 282 283 285 286 286 286 285 285 285 284 284 283 283 282 282 282 282 281 280 279 278 277 277 277 278 278 279 280 280 281
255 254 252 252 252 252 254 255 256 257 258 259 260 261 262 263 264 264 264 264 268 269 269 269 273 275 274 275 276 277 277 277 277 278 278 278 278 278 279 281 280 276 273 272 272 273 274 274 274 275 276 277 278 278 278 279 280 281 283 283 284 284 284 283 283 284 284 283 283 283 282 282 282 281 280 279 278 278 278 278 279 279 280 280 281 281
256 255 253 252 253 253 253 254 255 255 255 257 258 259 260 261 261 261 261 264 267 268 267 270 272 272 271 272 274 274 273 273 273 274 276 278 281 282 282 281 280 278 276 275 274 274 274 275 275 275 274 275 275 276 277 278 279 281 282 282 282 282 282 282 283 283 283 283 283 283 283 283 282 281 280 280 279 279 279 279 280 280 281 281 281 282
256 256 254 253 253 252 251 251 253 254 255 256 257 258 259 260 260 261 262 265 266 265 267 270 270 268 268 268 268 269 269 270 272 274 277 280 282 282 282 280 280 280 280 279 277 277 278 279 279 277 276 275 275 275 276 277 279 281 282 282 281 281 281 281 282 282 282 283 283 283 282 282 281 281 280 280 280 280 281 281 282 282 282 282 283 283
258 258 256 255 254 253 252 252 254 256 256 256 256 257 258 259 259 260 262 263 263 264 266 267 265 266 267 266 266 267 269 271 273 275 276 278 279 279 280 279 279 280 281 281 281 281 282 283 282 281 280 280 279 278 278 278 280 281 282 281 280 279 279 280 280 281 282 282 282 282 281 281 281 280 280 280 281 281 282 282 282 282 283 284 284 285
259 260 259 257 257 255 254 256 258 259 258 257 257 257 257 258 258 260 261 261 261 262 265 266 266 266 265 266 268 271 272 272 272 272 272 273 274 276 276 276 276 277 278 280 283 284 284 284 283 283 284 284 283 282 282 282 282 282 281 280 279 278 278 279 280 281 282 282 281 281 280 280 279 279 279 280 281 281 282 282 282 283 284 285 285 285
257 258 257 255 255 254 255 257 258 257 256 254 253 254 256 258 260 261 262 262 262 263 265 265 265 266 268 270 272 271 270 270 270 271 271 271 272 271 271 272 274 276 278 280 282 282 283 283 284 285 285 285 285 285 285 284 283 282 280 279 278 278 279 280 281 281 281 281 280 279 278 277 277 277 278 278 279 280 280 280 281 282 283 284 285 285
252 253 253 252 253 254 252 252 253 253 252 250 251 255 258 260 262 262 261 261 262 263 263 264 266 268 269 269 267 266 267 268 270 272 272 271 270 270 271 273 275 277 278 279 280 280 281 282 283 284 284 285 285 286 286 285 283 281 279 279 279 280 281 282 282 282 281 280 279 278 277 277 277 277 277 278 278 278 279 280 281 282 283 284 285 285
249 249 249 250 253 254 250 250 252 252 252 252 253 257 258 259 259 260 260 261 262 261 261 263 264 265 264 265 267 268 269 270 270 270 269 269 270 272 274 275 275 276 277 278 278 279 280 281 282 282 283 283 284 284 284 284 283 281 280 280 281 281 282 282 282 282 282 281 280 280 280 279 279 279 280 280 279 279 279 280 281 283 284 284 284 285
246 246 246 248 251 253 250 249 250 251 253 255 255 254 255 257 260 261 262 262 260 259 259 261 264 266 268 269 269 269 269 268 267 267 268 269 271 272 273 274 274 275 275 275 276 278 279 280 281 281 281 282 283 283 283 283 282 282 281 281 281 282 282 283 283 283 283 283 283 283 283 283 283 284 283 282 280 280 280 282 283 284 284 284 284 284
246 246 247 247 249 252 252 250 251 254 257 257 254 252 255 260 262 264 264 264 264 264 263 264 268 270 268 265 265 265 265 264 264 265 267 269 270 271 271 271 272 272 272 274 276 277 278 279 279 280 281 282 282 282 282 281 281 281 281 281 281 282 283 284 285 285 285 285 285 285 285 285 285 283 282 281 282 283 284 285 285 284 283 283 282 282
248 248 250 252 252 252 253 254 256 257 257 256 255 256 259 262 263 264 265 264 262 262 263 265 268 267 264 262 261 261 261 260 260 263 266 269 270 270 269 269 270 271 272 274 274 275 276 277 278 279 280 280 280 280 279 279 279 279 280 280 281 282 284 285 286 286 286 286 286 287 287 287 286 285 283 283 283 283 283 283 283 282 282 281 281 282
250 251 252 254 255 255 255 255 257 257 256 257 260 261 260 259 259 259 259 258 257 260 264 267 267 264 261 259 258 257 257 258 259 263 266 267 268 268 268 269 270 271 272 272 273 273 274 275 276 276 277 277 277 277 277 277 278 278 279 280 281 283 284 285 286 286 286 287 287 287 288 288 288 288 286 284 282 282 281 281 282 283 282 282 283 284
250 251 252 253 254 254 253 253 254 256 257 257 258 259 256 254 254 254 253 254 259 263 264 264 262 259 257 257 256 256 258 260 261 262 262 263 265 266 267 268 269 269 270 271 271 272 272 273 273 273 274 274 275 275 276 276 277 278 279 280 282 283 284 285 285 286 287 287 287 287 287 287 287 287 286 284 282 281 281 281 283 284 284 284 284 283
248 249 250 251 252 253 254 254 254 254 256 256 255 256 257 256 252 248 250 257 266 265 259 259 259 257 257 257 257 258 260 262 262 261 260 261 263 264 265 267 267 268 269 269 270 271 271 272 272 273 273 273 273 274 275 276 277 278 280 281 282 283 284 285 286 287 287 287 287 287 287 286 285 285 284 282 281 280 279 280 282 284 284 283 282 281
249 249 249 250 253 255 255 257 257 257 257 257 255 255 259 258 251 248 254 265 269 260 254 256 257 258 259 259 259 261 261 261 261 261 261 261 262 263 264 265 266 266 267 268 269 270 271 272 272 273 273 273 274 275 276 277 278 280 281 283 284 286 287 287 288 288 288 287 287 286 285 284 283 283 282 282 281 281 281 281 281 281 281 281 281 281
249 251 251 251 252 254 256 258 260 260 259 258 256 256 256 257 257 258 263 265 261 257 256 256 256 258 259 257 258 258 259 260 262 262 262 262 262 263 264 264 264 265 266 267 268 269 270 271 272 273 273 274 276 277 278 280 282 283 285 286 287 288 289 289 289 288 287 286 285 283 283 282 281 281 281 281 281 280 279 279 279 280 280 280 280 279
250 252 253 253 253 255 256 257 259 260 260 260 258 257 256 259 263 264 262 258 257 257 256 254 255 256 255 253 254 255 257 259 261 261 261 262 262 263 263 263 263 264 265 267 268 269 270 271 271 272 274 275 277 279 281 282 284 285 286 288 289 290 290 290 289 287 286 284 283 282 281 280 280 280 281 282 281 281 280 279 280 280 280 279 278 278
249 250 252 253 253 254 255 255 257 260 261 258 256 255 256 258 260 258 256 255 256 255 253 253 254 255 254 254 254 255 256 257 257 258 259 260 261 261 261 261 262 263 265 267 268 269 269 270 270 272 273 275 277 279 281 283 285 287 288 290 291 291 290 289 287 285 284 283 282 281 281 280 280 280 280 279 278 277 276 277 278 278 277 276 275 274
250 249 251 253 254 254 256 257 258 259 258 256 255 254 254 254 253 253 254 255 255 254 254 254 255 255 256 256 255 256 257 256 256 256 257 258 259 260 260 260 261 263 265 267 268 268 268 268 269 271 273 275 278 280 282 284 286 289 291 292 291 290 288 286 285 284 283 283 282 281 281 281 281 280 279 278 276 275 276 276 275 274 273 272 272 272
252 252 254 255 256 256 257 258 258 257 256 255 255 254 253 254 254 255 255 255 256 257 257 257 257 257 257 257 257 257 257 257 256 256 257 258 259 259 260 261 262 263 265 266 267 268 269 270 272 274 276 278 280 281 284 286 288 290 291 291 290 288 286 285 284 284 283 282 282 281 281 281 280 280 279 278 277 276 275 274 273 271 271 272 273 274
250 253 256 257 257 257 258 258 258 258 257 255 254 255 256 257 257 257 257 257 257 258 259 259 260 259 258 258 257 257 258 258 257 257 257 258 258 259 260 261 262 263 265 267 269 271 273 275 277 278 279 281 282 284 286 288 290 291 291 290 288 286 285 285 284 283 282 282 281 280 280 280 279 279 278 276 274 273 271 271 271 271 272 273 274 275
247 249 252 255 257 258 259 259 258 258 257 255 254 255 256 257 257 257 257 258 260 262 263 262 261 260 258 257 256 256 256 257 256 256 257 257 257 258 259 260 262 265 267 270 273 275 276 278 279 281 283 285 287 288 290 290 290 290 288 287 286 285 284 284 283 282 281 280 279 279 279 279 279 279 278 278 276 275 273 272 272 272 273 274 275 276
244 245 247 250 253 254 256 259 261 261 260 258 257 256 257 258 259 258 258 259 261 264 265 263 260 258 256 255 254 254 254 255 255 256 256 255 256 258 260 263 266 269 272 274 276 278 280 282 284 286 288 289 290 291 290 289 288 287 285 284 283 283 282 282 281 281 280 279 280 280 280 280 281 281 280 279 278 276 275 274 274 274 275 276 277 279
242 242 244 247 249 251 254 258 260 259 257 256 255 254 254 254 255 257 258 260 261 262 262 261 259 256 255 254 254 253 253 253 254 255 255 257 259 262 265 268 270 273 276 279 281 283 285 287 288 290 291 291 292 291 290 289 288 286 285 284 283 283 283 283 282 282 282 282 282 282 283 283 282 282 281 279 278 277 276 276 277 277 278 279 279 280
244 242 242 242 245 247 250 252 253 252 252 251 251 250 250 251 253 254 256 257 259 259 258 258 257 255 254 254 253 252 252 253 255 257 260 263 266 269 271 274 276 279 282 284 286 288 289 290 291 291 292 292 291 291 290 289 288 287 286 285 285 284 284 284 284 284 284 284 284 283 283 282 282 281 280 279 279 279 279 279 279 279 280 280 281 282
Height
5834 5836 5838 5839 5839 5838 5839 5841 5843 5844 5844 5845 5845 5846 5847 5848 5848 5847 5846 5847 5847 5847 5848 5848 5848 5850 5852 5851 5850 5848 5849 5850 5850 5849 5849 5847 5846 5845 5845 5844 5844 5844 5845 5844 5844 5844 5844 5844 5844 5844 5844 5844 5844 5844 5844 5844 5844 5844 5845 5845 5845 5845 5845 5845 5844 5844 5844 5844 5844 5844 5843 5843 5844 5844 5844 5843 5842 5842 5842 5842 5842 5841 5840 5840 5839 5839
5831 5834 5836 5835 5834 5835 5837 5839 5840 5841 5841 5842 5842 5843 5844 5845 5844 5844 5844 5844 5844 5844 5846 5846 5845 5847 5849 5849 5849 5848 5847 5847 5847 5846 5845 5844 5843 5842 5842 5842 5841 5841 5842 5841 5841 5841 5841 5841 5841 5841 5841 5841 5841 5841 5841 5841 5841 5841 5841 5841 5841 5841 5841 5841 5842 5842 5841 5841 5840 5841 5840 5840 5840 5840 5840 5840 5839 5839 5838 5838 5838 5837 5837 5836 5836 5835
5829 5831 5832 5831 5832 5833 5835 5836 5837 5837 5838 5839 5839 5840 5841 5841 5841 5841 5841 5841 5841 5841 5842 5843 5842 5844 5846 5847 5848 5847 5846 5846 5844 5843 5843 5841 5841 5840 5839 5839 5839 5839 5838 5838 5837 5837 5837 5837 5838 5838 5838 5838 5838 5838 5838 5838 5838 5838 5837 5837 5837 5837 5838 5838 5838 5838 5838 5837 5837 5837 5837 5836 5836 5836 5836 5836 5835 5835 5834 5834 5834 5833 5833 5832 5832 5831
5826 5828 5828 5828 5830 5831 5832 5833 5834 5834 5835 5835 5836 5837 5837 5837 5837 5838 5838 5838 5838 5838 5839 5839 5838 5840 5843 5844 5845 5844 5844 5844 5841 5840 5840 5838 5837 5837 5837 5837 5836 5836 5835 5834 5834 5834 5834 5834 5834 5835 5835 5835 5835 5835 5835 5835 5834 5834 5834 5834 5834 5834 5834 5834 5834 5834 5834 5834 5833 5833 5833 5833 5832 5832 5832 5831 5831 5831 5830 5830 5830 5829 5829 5828 5827 5827
5823 5824 5825 5826 5827 5828 5829 5830 5831 5831 5831 5832 5833 5833 5834 5834 5833 5834 5835 5835 5835 5834 5835 5835 5832 5835 5840 5842 5842 5842 5841 5840 5839 5837 5836 5834 5834 5833 5833 5834 5833 5832 5832 5831 5831 5831 5830 5830 5830 5831 5831 5832 5832 5832 5831 5831 5831 5831 5831 5830 5830 5830 5830 5830 5830 5830 5830 5830 5830 5829 5829 5829 5828 5828 5827 5827 5827 5826 5826 5825 5825 5825 5824 5824 5823 5822
5819 5820 5822 5823 5823 5825 5826 5826 5827 5827 5828 5829 5830 5830 5830 5830 5830 5831 5831 5831 5832 5832 5832 5831 5826 5828 5835 5839 5839 5839 5838 5837 5836 5834 5833 5831 5830 5830 5830 5830 5829 5828 5828 5828 5827 5827 5826 5826 5827 5827 5828 5828 5828 5828 5827 5827 5828 5828 5827 5827 5827 5827 5826 5826 5826 5826 5826 5826 5826 5825 5824 5824 5824 5824 5823 5823 5822 5822 5821 5821 5821 5820 5820 5819 5818 5818
5816 5817 5818 5820 5820 5821 5822 5822 5823 5823 5824 5825 5827 5827 5826 5826 5827 5827 5827 5827 5827 5828 5829 5828 5823 5821 5828 5834 5836 5835 5835 5835 5833 5830 5829 5828 5827 5826 5826 5825 5825 5825 5824 5824 5824 5823 5823 5823 5823 5823 5824 5824 5824 5824 5824 5824 5824 5824 5824 5823 5823 5823 5823 5822 5822 5822 5821 5821 5822 5821 5820 5820 5819 5819 5819 5819 5818 5818 5817 5817 5816 5816 5815 5814 5814 5813
5813 5813 5814 5816 5816 5817 5818 5819 5819 5819 5820 5822 5824 5823 5822 5823 5823 5823 5823 5823 5824 5824 5824 5825 5821 5816 5820 5829 5832 5831 5832 5832 5830 5826 5825 5825 5824 5823 5822 5821 5821 5821 5821 5821 5820 5819 5819 5819 5820 5820 5820 5820 5820 5820 5820 5820 5820 5820 5819 5819 5819 5819 5818 5818 5818 5818 5817 5817 5817 5817 5816 5816 5815 5815 5814 5814 5814 5813 5813 5812 5812 5811 5811 5810 5809 5809
5807 5808 5810 5811 5811 5813 5815 5815 5814 5816 5817 5818 5819 5819 5819 5819 5818 5819 5819 5819 5820 5819 5819 5821 5818 5813 5813 5822 5826 5827 5829 5828 5825 5823 5821 5822 5821 5819 5818 5817 5817 5817 5817 5817 5817 5816 5816 5816 5816 5816 5816 5816 5816 5816 5816 5816 5816 5816 5815 5815 5815 5815 5814 5814 5813 5813 5813 5813 5812 5812 5812 5811 5811 5810 5810 5810 5809 5809 5808 5808 5807 5807 5806 5805 5805 5804
5801 5803 5805 5806 5808 5810 5811 5811 5811 5812 5813 5814 5815 5814 5815 5815 5814 5815 5815 5816 5816 5814 5816 5817 5815 5810 5807 5815 5822 5823 5825 5824 5821 5820 5818 5817 5817 5815 5815 5814 5814 5814 5813 5813 5813 5813 5813 5813 5812 5812 5812 5812 5812 5812 5812 5812 5811 5811 5811 5811 5810 5810 5810 5809 5809 5809 5809 5808 5808 5807 5807 5806 5806 5805 5805 5805 5805 5804 5804 5803 5803 5802 5802 5801 5800 5800
5796 5799 5801 5803 5805 5807 5807 5807 5808 5808 5809 5810 5810 5809 5810 5810 5811 5812 5811 5813 5811 5810 5814 5813 5810 5807 5801 5808 5820 5820 5820 5820 5816 5816 5815 5814 5813 5812 5811 5811 5810 5810 5810 5810 5810 5809 5809 5809 5809 5808 5808 5808 5807 5808 5807 5807 5807 5806 5806 5806 5806 5806 5805 5805 5804 5804 5804 5803 5803 5802 5802 5801 5801 5801 5800 5800 5800 5799 5799 5798 5798 5797 5797 5796 5796 5795
5792 5795 5797 5800 5802 5802 5802 5802 5803 5803 5804 5805 5805 5805 5806 5806 5807 5807 5807 5808 5806 5807 5811 5808 5805 5803 5797 5804 5816 5815 5815 5817 5813 5811 5810 5810 5809 5808 5808 5807 5807 5807 5806 5806 5806 5806 5806 5805 5805 5804 5804 5804 5803 5803 5803 5803 5802 5802 5802 5802 5801 5801 5801 5800 5800 5799 5799 5799 5798 5797 5797 5797 5796 5796 5795 5795 5795 5794 5794 5793 5793 5792 5792 5791 5791 5791
5788 5790 5792 5794 5795 5797 5797 5797 5798 5799 5800 5801 5801 5801 5801 5801 5801 5802 5803 5803 5802 5805 5807 5803 5799 5796 5795 5804 5811 5810 5811 5812 5811 5808 5805 5805 5805 5805 5805 5804 5803 5803 5803 5803 5802 5802 5801 5801 5801 5800 5800 5800 5799 5799 5799 5798 5798 5798 5798 5797 5797 5797 5796 5796 5795 5795 5794 5794 5793 5793 5792 5792 5791 5791 5790 5790 5790 5789 5789 5788 5788 5787 5787 5786 5786 5786
5781 5783 5785 5787 5789 5792 5792 5793 5794 5795 5795 5795 5796 5797 5796 5797 5797 5797 5798 5797 5798 5801 5801 5799 5794 5790 5793 5802 5806 5806 5807 5807 5808 5807 5802 5800 5801 5801 5801 5800 5800 5800 5799 5799 5798 5798 5797 5797 5796 5796 5796 5796 5795 5795 5795 5794 5794 5793 5793 5793 5792 5792 5791 5791 5791 5790 5790 5789 5789 5788 5787 5787 5786 5786 5785 5785 5784 5784 5783 5783 5783 5782 5782 5781 5781 5781
5775 5777 5782 5784 5784 5787 5788 5789 5789 5789 5789 5789 5791 5791 5791 5794 5793 5792 5793 5792 5793 5795 5795 5795 5791 5786 5792 5798 5799 5801 5802 5802 5804 5804 5801 5797 5796 5796 5797 5796 5796 5796 5795 5795 5794 5794 5793 5793 5793 5792 5792 5791 5791 5790 5790 5790 5789 5789 5788 5788 5787 5787 5787 5786 5786 5785 5785 5784 5784 5783 5783 5782 5781 5781 5780 5780 5779 5779 5778 5778 5778 5777 5777 5776 5776 5776
5770 5773 5779 5779 5779 5782 5782 5783 5783 5783 5783 5784 5785 5786 5787 5791 5789 5786 5787 5788 5788 5787 5788 5791 5787 5785 5789 5792 5793 5796 5796 5797 5799 5799 5798 5795 5792 5792 5791 5791 5792 5792 5791 5791 5791 5790 5790 5789 5789 5788 5788 5787 5786 5786 5786 5786 5785 5784 5784 5783 5783 5783 5782 5782 5781 5780 5780 5779 5779 5778 5778 5777 5776 5776 5775 5775 5774 5774 5773 5773 5772 5772 5772 5772 5771 5771
5764 5767 5772 5771 5772 5775 5775 5775 5776 5776 5777 5778 5780 5782 5784 5785 5783 5781 5781 5783 5783 5780 5783 5786 5783 5783 5785 5785 5789 5792 5791 5792 5793 5794 5795 5793 5790 5789 5786 5786 5786 5787 5788 5787 5786 5786 5786 5785 5785 5784 5783 5782 5782 5782 5782 5781 5781 5780 5780 5779 5778 5778 5778 5777 5776 5775 5775 5774 5774 5773 5773 5772 5771 5771 5770 5769 5769 5768 5768 5767 5767 5767 5767 5766 5766 5765
5759 5760 5764 5765 5765 5767 5768 5769 5769 5770 5771 5772 5775 5778 5779 5777 5777 5777 5776 5777 5778 5775 5778 5781 5779 5779 5779 5780 5785 5787 5786 5787 5787 5788 5790 5789 5788 5786 5783 5782 5781 5782 5783 5783 5782 5782 5781 5780 5780 5779 5778 5778 5778 5778 5777 5777 5777 5776 5775 5775 5774 5773 5773 5772 5771 5771 5770 5770 5769 5768 5768 5767 5766 5765 5765 5764 5764 5763 5763 5763 5763 5762 5761 5761 5760 5759
5753 5753 5755 5758 5758 5760 5762 5761 5763 5765 5766 5767 5770 5772 5772 5770 5771 5773 5771 5771 5773 5770 5771 5776 5775 5773 5774 5778 5781 5782 5781 5782 5781 5782 5784 5785 5785 5784 5781 5778 5777 5777 5777 5778 5778 5777 5776 5776 5775 5774 5774 5773 5774 5773 5773 5773 5772 5772 5771 5770 5770 5769 5768 5768 5767 5767 5766 5765 5764 5763 5762 5762 5761 5760 5760 5759 5759 5758 5758 5758 5757 5757 5756 5755 5754 5753
5746 5745 5746 5750 5752 5752 5753 5755 5758 5761 5761 5762 5763 5764 5765 5766 5766 5767 5766 5766 5767 5765 5765 5768 5770 5769 5771 5775 5777 5776 5776 5777 5775 5775 5778 5780 5781 5780 5778 5775 5773 5772 5772 5772 5772 5772 5772 5771 5770 5770 5769 5769 5769 5769 5768 5768 5768 5767 5767 5766 5766 5765 5764 5764 5763 5762 5761 5760 5759 5758 5757 5757 5756 5755 5755 5754 5754 5754 5753 5753 5752 5751 5751 5750 5749 5748
5738 5737 5739 5743 5743 5743 5746 5751 5754 5756 5755 5755 5757 5758 5760 5761 5760 5760 5759 5759 5760 5759 5759 5761 5761 5764 5768 5770 5770 5771 5771 5770 5769 5769 5771 5775 5776 5776 5773 5771 5769 5768 5767 5767 5767 5767 5767 5766 5765 5765 5765 5764 5764 5764 5763 5763 5763 5762 5762 5762 5761 5760 5760 5759 5758 5757 5756 5755 5754 5753 5752 5752 5751 5750 5750 5749 5749 5749 5748 5748 5747 5746 5745 5744 5743 5742
5731 5731 5733 5734 5735 5738 5743 5746 5747 5747 5748 5749 5750 5752 5754 5755 5754 5752 5751 5752 5754 5753 5755 5754 5752 5758 5765 5764 5764 5766 5764 5762 5763 5764 5766 5768 5769 5770 5769 5767 5765 5763 5762 5763 5763 5762 5761 5760 5760 5760 5760 5759 5759 5759 5759 5758 5758 5757 5757 5756 5756 5755 5754 5753 5752 5751 5751 5750 5749 5748 5747 5746 5746 5745 5745 5745 5744 5744 5743 5742 5741 5740 5739 5738 5737 5735
5725 5723 5724 5725 5729 5733 5736 5737 5737 5739 5741 5741 5742 5746 5749 5748 5746 5745 5744 5747 5749 5747 5749 5748 5743 5749 5761 5760 5759 5761 5758 5755 5756 5760 5761 5761 5761 5763 5763 5762 5760 5759 5758 5758 5759 5758 5756 5756 5755 5754 5754 5754 5754 5754 5754 5753 5753 5752 5752 5751 5750 5749 5748 5747 5747 5746 5745 5744 5743 5743 5742 5741 5741 5740 5740 5739 5739 5738 5737 5736 5735 5734 5733 5732 5730 5729
5716 5713 5715 5718 5721 5724 5726 5727 5730 5731 5732 5733 5737 5741 5742 5741 5741 5740 5739 5741 5741 5740 5745 5743 5735 5741 5754 5755 5753 5752 5750 5750 5751 5753 5755 5755 5754 5755 5756 5757 5756 5754 5754 5753 5753 5753 5752 5751 5750 5749 5749 5749 5749 5749 5749 5748 5748 5747 5746 5745 5745 5744 5743 5742 5741 5740 5740 5739 5738 5737 5737 5736 5736 5735 5734 5734 5733 5732 5731 5730 5729 5728 5727 5725 5724 5723
5707 5705 5709 5710 5711 5714 5716 5719 5722 5725 5727 5729 5732 5735 5734 5735 5735 5732 5733 5734 5731 5735 5742 5736 5728 5737 5749 5749 5747 5745 5744 5746 5746 5745 5747 5748 5747 5747 5749 5751 5750 5749 5749 5748 5748 5748 5747 5746 5745 5744 5744 5744 5744 5744 5744 5743 5742 5741 5741 5740 5739 5739 5738 5737 5737 5735 5735 5734 5733 5732 5732 5731 5730 5730 5729 5728 5727 5726 5725 5724 5723 5722 5720 5719 5718 5716
5697 5696 5700 5700 5699 5703 5706 5711 5718 5723 5723 5722 5725 5727 5727 5728 5727 5725 5727 5725 5723 5731 5734 5726 5725 5736 5742 5741 5740 5740 5740 5740 5739 5738 5738 5738 5738 5740 5742 5743 5744 5743 5743 5743 5742 5741 5741 5740 5740 5740 5740 5739 5739 5739 5738 5738 5737 5736 5736 5735 5734 5734 5733 5733 5732 5731 5730 5729 5728 5727 5726 5726 5725 5724 5723 5722 5721 5720 5719 5718 5716 5715 5714 5713 5711 5709
5688 5687 5689 5690 5691 5695 5701 5708 5713 5715 5713 5712 5716 5718 5719 5719 5719 5718 5716 5714 5718 5724 5722 5720 5726 5732 5733 5733 5734 5734 5735 5734 5733 5732 5730 5728 5728 5732 5735 5736 5736 5735 5735 5736 5736 5735 5734 5735 5735 5736 5736 5734 5734 5733 5732 5732 5731 5731 5731 5730 5729 5728 5728 5727 5726 5725 5725 5724 5723 5722 5721 5721 5720 5718 5717 5716 5715 5714 5712 5711 5710 5709 5707 5706 5704 5702
5678 5677 5681 5684 5685 5689 5696 5702 5703 5702 5702 5705 5707 5708 5710 5710 5710 5708 5705 5709 5717 5713 5708 5718 5725 5722 5725 5729 5729 5728 5728 5727 5728 5727 5724 5721 5721 5724 5726 5727 5727 5727 5728 5728 5728 5728 5728 5729 5730 5731 5730 5729 5728 5727 5727 5726 5726 5726 5725 5725 5724 5723 5722 5722 5721 5720 5719 5718 5717 5716 5716 5715 5713 5712 5711 5710 5709 5707 5706 5705 5704 5702 5700 5698 5696 5695
5670 5669 5674 5678 5678 5683 5690 5693 5692 5692 5694 5697 5698 5699 5702 5702 5700 5699 5699 5707 5710 5701 5701 5716 5718 5712 5718 5724 5722 5722 5722 5721 5722 5721 5718 5717 5716 5715 5717 5718 5718 5718 5719 5720 5720 5720 5721 5722 5724 5724 5723 5722 5721 5721 5721 5721 5720 5720 5720 5719 5718 5718 5717 5716 5715 5715 5713 5713 5712 5711 5709 5708 5707 5706 5704 5703 5702 5701 5700 5699 5697 5695 5693 5691 5689 5687
5662 5663 5668 5671 5671 5675 5682 5685 5685 5685 5686 5688 5689 5691 5693 5693 5693 5694 5696 5701 5701 5693 5698 5709 5706 5705 5714 5716 5715 5717 5717 5717 5717 5715 5713 5712 5710 5709 5710 5711 5711 5710 5709 5710 5711 5712 5713 5714 5715 5714 5714 5714 5714 5715 5715 5714 5714 5714 5713 5713 5713 5712 5711 5710 5710 5709 5708 5707 5706 5704 5703 5702 5700 5699 5698 5697 5696 5695 5693 5692 5690 5688 5686 5684 5682 5680
5657 5657 5662 5665 5662 5664 5673 5679 5677 5676 5677 5678 5679 5681 5684 5685 5686 5688 5690 5693 5691 5687 5695 5701 5697 5700 5708 5709 5710 5713 5711 5710 5709 5707 5708 5708 5706 5705 5704 5704 5704 5703 5703 5703 5704 5705 5706 5706 5706 5706 5706 5707 5707 5708 5708 5707 5707 5707 5706 5706 5706 5705 5705 5704 5704 5703 5702 5701 5699 5698 5696 5695 5693 5692 5691 5690 5689 5688 5686 5685 5683 5681 5679 5677 5675 5673
5651 5651 5656 5658 5653 5654 5668 5673 5668 5667 5668 5666 5668 5673 5678 5680 5681 5682 5683 5686 5685 5684 5689 5691 5688 5695 5704 5704 5704 5705 5701 5699 5700 5700 5702 5702 5701 5700 5697 5697 5697 5697 5698 5699 5698 5698 5698 5698 5698 5699 5699 5700 5700 5701 5700 5700 5700 5700 5699 5699 5699 5698 5698 5698 5697 5696 5695 5694 5692 5691 5690 5688 5686 5685 5684 5683 5682 5681 5679 5677 5676 5674 5672 5670 5668 5666
5645 5646 5649 5650 5645 5650 5662 5663 5659 5658 5653 5650 5661 5673 5676 5676 5676 5675 5675 5678 5680 5679 5680 5680 5682 5692 5697 5694 5693 5694 5692 5692 5694 5695 5694 5693 5692 5691 5691 5693 5692 5691 5692 5692 5692 5692 5691 5691 5692 5692 5693 5694 5693 5694 5693 5693 5694 5693 5692 5692 5692 5692 5691 5690 5690 5689 5688 5687 5685 5684 5682 5681 5680 5679 5677 5676 5675 5674 5672 5670 5668 5666 5664 5663 5661 5659
5639 5640 5642 5643 5640 5644 5654 5654 5649 5643 5637 5644 5663 5673 5670 5667 5666 5665 5667 5672 5674 5672 5671 5672 5677 5685 5686 5684 5685 5687 5686 5686 5687 5686 5684 5684 5685 5685 5686 5686 5685 5685 5686 5685 5685 5685 5685 5685 5686 5686 5687 5687 5686 5687 5686 5686 5686 5686 5685 5685 5684 5684 5683 5682 5682 5681 5680 5679 5677 5676 5675 5674 5673 5672 5670 5669 5667 5666 5664 5662 5661 5659 5657 5656 5654 5652
5633 5634 5635 5636 5635 5637 5644 5644 5635 5629 5633 5650 5663 5664 5660 5659 5659 5658 5660 5664 5665 5663 5663 5666 5671 5678 5681 5680 5680 5679 5678 5678 5677 5676 5676 5677 5678 5679 5679 5679 5679 5679 5679 5678 5678 5678 5678 5679 5679 5679 5680 5679 5679 5679 5679 5678 5678 5678 5678 5677 5676 5676 5675 5674 5674 5673 5672 5671 5670 5669 5668 5667 5667 5666 5664 5662 5660 5659 5658 5656 5655 5653 5651 5649 5647 5645
5627 5628 5628 5629 5629 5630 5633 5631 5625 5626 5637 5647 5652 5655 5655 5655 5654 5652 5651 5656 5659 5658 5659 5661 5666 5672 5674 5672 5671 5670 5669 5668 5669 5670 5671 5671 5671 5672 5672 5673 5672 5671 5672 5672 5672 5673 5672 5672 5672 5672 5672 5672 5672 5672 5671 5671 5670 5670 5670 5669 5668 5668 5667 5666 5666 5665 5664 5663 5662 5661 5660 5660 5660 5659 5657 5655 5653 5652 5651 5650 5648 5645 5643 5641 5639 5637
5621 5621 5622 5621 5621 5622 5623 5621 5622 5626 5629 5635 5645 5652 5653 5650 5649 5646 5643 5647 5654 5654 5653 5656 5660 5663 5664 5663 5663 5663 5660 5658 5662 5667 5668 5665 5664 5664 5664 5665 5665 5665 5666 5667 5666 5666 5666 5665 5665 5665 5665 5665 5665 5664 5664 5663 5663 5663 5662 5662 5661 5661 5660 5659 5658 5657 5657 5656 5655 5654 5652 5651 5651 5651 5650 5648 5647 5645 5644 5642 5639 5638 5635 5633 5631 5629
5614 5613 5615 5613 5612 5615 5616 5614 5616 5615 5618 5631 5645 5649 5647 5644 5643 5640 5633 5635 5646 5651 5649 5651 5653 5654 5655 5656 5656 5655 5651 5650 5657 5665 5664 5657 5656 5657 5656 5657 5659 5659 5660 5660 5659 5660 5660 5659 5660 5659 5658 5658 5658 5657 5657 5657 5656 5656 5656 5655 5655 5654 5653 5652 5651 5650 5650 5649 5648 5646 5645 5643 5642 5642 5642 5640 5638 5637 5635 5633 5631 5629 5627 5625 5623 5621
5605 5606 5608 5605 5603 5607 5607 5605 5606 5605 5613 5632 5641 5640 5638 5636 5635 5632 5622 5624 5642 5651 5646 5644 5643 5644 5647 5648 5648 5647 5644 5645 5654 5660 5655 5649 5649 5650 5650 5651 5652 5652 5652 5653 5653 5653 5653 5653 5653 5653 5652 5652 5651 5651 5651 5650 5650 5650 5649 5649 5648 5647 5647 5645 5644 5643 5642 5642 5641 5639 5638 5636 5635 5634 5633 5631 5629 5627 5626 5624 5622 5620 5618 5616 5615 5613
5596 5598 5598 5595 5594 5599 5599 5597 5597 5599 5611 5629 5634 5630 5629 5629 5627 5621 5612 5621 5642 5647 5640 5636 5634 5635 5641 5641 5639 5640 5640 5641 5646 5649 5645 5643 5644 5645 5644 5645 5645 5645 5646 5646 5646 5646 5646 5646 5646 5646 5646 5646 5645 5645 5645 5644 5644 5644 5643 5643 5642 5641 5640 5639 5638 5637 5636 5634 5634 5632 5630 5629 5627 5626 5624 5623 5621 5620 5618 5616 5614 5612 5610 5609 5607 5605
5588 5589 5588 5587 5589 5591 5590 5589 5589 5593 5607 5623 5625 5621 5621 5620 5615 5610 5610 5624 5638 5637 5633 5632 5628 5629 5634 5633 5632 5634 5634 5633 5636 5638 5638 5638 5638 5638 5638 5638 5638 5638 5639 5639 5639 5639 5639 5639 5639 5639 5639 5639 5639 5639 5638 5638 5638 5637 5637 5636 5635 5634 5634 5633 5632 5631 5629 5628 5627 5625 5623 5621 5619 5618 5616 5615 5613 5611 5609 5608 5606 5605 5603 5601 5599 5597
5579 5580 5578 5579 5581 5583 5583 5583 5581 5584 5602 5617 5616 5611 5611 5607 5604 5609 5616 5623 5626 5626 5628 5626 5622 5623 5626 5625 5624 5626 5625 5626 5628 5630 5631 5631 5631 5632 5632 5631 5632 5632 5632 5632 5632 5633 5632 5632 5632 5632 5632 5632 5632 5632 5632 5631 5631 5631 5630 5629 5628 5627 5627 5626 5625 5624 5622 5620 5619 5617 5615 5613 5611 5610 5608 5606 5605 5604 5602 5600 5599 5597 5595 5592 5590 5588
5572 5571 5569 5571 5575 5576 5576 5574 5571 5578 5598 5611 5605 5598 5599 5600 5604 5610 5614 5614 5616 5618 5619 5617 5615 5615 5616 5616 5617 5617 5618 5620 5621 5622 5623 5623 5624 5625 5625 5625 5625 5625 5625 5626 5625 5625 5626 5625 5625 5625 5625 5625 5625 5625 5625 5624 5623 5623 5622 5621 5621 5620 5619 5618 5617 5615 5614 5612 5610 5608 5606 5605 5603 5601 5600 5598 5597 5595 5594 5592 5590 5589 5587 5585 5582 5580
5561 5562 5560 5564 5569 5568 5563 5564 5568 5578 5593 5599 5593 5590 5593 5597 5601 5603 5602 5604 5607 5608 5608 5608 5608 5607 5607 5609 5610 5609 5611 5613 5613 5614 5616 5616 5616 5618 5618 5618 5619 5618 5618 5619 5618 5618 5619 5618 5618 5619 5618 5618 5618 5617 5618 5617 5616 5615 5615 5614 5613 5612 5611 5609 5608 5606 5604 5602 5601 5599 5597 5596 5594 5593 5591 5590 5589 5588 5586 5584 5583 5581 5578 5576 5573 5571
5552 5556 5556 5559 5561 5559 5557 5561 5568 5575 5582 5585 5585 5586 5587 5589 5592 5592 5593 5595 5597 5597 5599 5601 5600 5599 5601 5602 5602 5603 5604 5605 5606 5607 5608 5608 5609 5610 5610 5611 5612 5611 5611 5611 5611 5611 5611 5611 5611 5612 5611 5611 5611 5610 5610 5610 5608 5607 5606 5605 5605 5603 5602 5600 5599 5597 5595 5594 5592 5590 5588 5587 5585 5584 5583 5582 5581 5579 5578 5576 5574 5572 5569 5567 5564 5561
5546 5551 5552 5551 5551 5552 5552 5556 5562 5567 5571 5575 5578 5579 5579 5581 5583 5584 5585 5586 5588 5589 5591 5592 5592 5593 5594 5594 5595 5596 5596 5597 5599 5599 5600 5601 5602 5602 5603 5604 5604 5604 5604 5604 5604 5604 5604 5604 5604 5604 5604 5604 5604 5603 5602 5601 5600 5599 5597 5596 5595 5594 5592 5591 5589 5588 5586 5585 5583 5581 5580 5578 5576 5575 5574 5573 5572 5571 5569 5566 5564 5562 5559 5557 5554 5552
5541 5544 5544 5542 5542 5544 5545 5549 5556 5560 5562 5566 5569 5570 5572 5573 5574 5575 5576 5577 5579 5580 5582 5583 5584 5585 5586 5587 5588 5588 5588 5589 5590 5590 5592 5593 5593 5594 5595 5595 5595 5596 5596 5596 5596 5596 5596 5596 5596 5596 5596 5596 5595 5594 5593 5592 5591 5590 5588 5587 5585 5584 5582 5581 5580 5579 5577 5576 5574 5572 5571 5569 5567 5566 5565 5564 5563 5561 5559 5557 5555 5552 5550 5547 5544 5542
5533 5535 5534 5533 5536 5537 5537 5542 5550 5552 5552 5557 5560 5562 5564 5564 5564 5566 5568 5568 5569 5571 5573 5575 5576 5577 5578 5579 5579 5580 5580 5581 5582 5582 5584 5585 5585 5586 5586 5586 5587 5587 5587 5588 5588 5588 5588 5588 5588 5587 5587 5586 5585 5585 5584 5582 5581 5580 5579 5577 5576 5574 5573 5572 5571 5569 5568 5566 5565 5563 5561 5560 5558 5556 5555 5554 5552 5551 5549 5547 5545 5543 5540 5537 5534 5531
5522 5524 5524 5526 5529 5530 5532 5537 5542 5543 5544 5548 5551 5554 5556 5555 5555 5558 5559 5559 5562 5563 5564 5566 5567 5568 5569 5570 5571 5572 5573 5573 5574 5574 5575 5575 5576 5577 5577 5577 5578 5579 5579 5580 5580 5579 5579 5579 5579 5578 5577 5576 5575 5575 5574 5573 5572 5570 5569 5568 5567 5566 5564 5563 5561 5560 5558 5557 5556 5554 5552 5550 5548 5547 5545 5544 5542 5541 5539 5537 5535 5532 5529 5526 5523 5521
5514 5516 5519 5521 5523 5524 5529 5534 5534 5533 5535 5539 5541 5544 5545 5545 5545 5547 5549 5550 5553 5554 5556 5558 5559 5560 5561 5562 5563 5564 5564 5564 5565 5565 5565 5566 5567 5567 5568 5569 5569 5569 5570 5570 5570 5569 5569 5568 5568 5567 5566 5565 5565 5564 5563 5562 5561 5560 5559 5558 5557 5556 5554 5553 5551 5550 5548 5547 5545 5543 5542 5540 5538 5537 5536 5534 5533 5531 5529 5527 5525 5522 5519 5516 5513 5510
5508 5511 5513 5514 5515 5519 5524 5527 5525 5525 5528 5531 5532 5532 5534 5535 5537 5538 5540 5542 5544 5546 5548 5550 5550 5552 5553 5554 5555 5555 5555 5556 5556 5556 5557 5557 5557 5558 5559 5559 5559 5559 5560 5559 5559 5559 5558 5558 5557 5556 5555 5554 5554 5553 5552 5551 5550 5549 5548 5547 5546 5545 5543 5542 5541 5539 5538 5537 5535 5534 5532 5531 5529 5528 5526 5525 5523 5521 5519 5517 5514 5511 5509 5506 5503 5500